GFSSW_850_thetae_159.txt.gz
Theta_e
310 313 314 315 314 316 314 312 312 311 308 306 304 303 303 306 308 311 313 314 314 315 318 324 324 321 323 326 330 328 326 329 330 328 329 328 326 325 327 328 328 327 327 328 331
306 308 311 313 314 315 316 314 312 312 311 309 307 305 302 302 303 304 305 309 313 314 315 318 323 323 321 326 330 327 325 327 326 325 327 328 327 325 325 326 327 328 328 328 330
308 308 310 309 310 313 314 316 314 312 312 310 309 308 306 304 303 301 302 303 305 312 314 315 319 324 325 324 330 327 326 325 328 327 328 328 325 326 325 324 326 326 326 328 331
309 310 309 310 309 308 310 313 316 313 312 311 311 310 309 308 300 310 307 303 303 305 315 316 322 326 324 322 326 328 328 327 328 328 327 327 328 328 326 326 326 326 328 327 328
308 309 310 310 310 309 308 310 314 315 313 311 311 311 310 309 307 310 314 312 303 309 314 317 322 326 322 322 323 325 326 328 328 327 327 327 327 327 328 328 329 329 328 327 327
306 307 309 310 310 310 309 307 310 315 313 312 311 311 310 309 306 307 312 314 308 307 315 318 318 325 325 322 321 321 324 326 325 326 326 326 326 327 328 328 328 328 328 328 329
304 306 307 310 309 310 309 308 307 312 315 313 311 312 311 310 306 305 306 308 313 305 313 316 320 325 324 324 324 323 322 320 320 322 322 324 324 324 325 327 327 327 325 326 326
302 304 306 307 309 309 309 308 307 309 315 313 311 313 311 310 310 306 307 312 316 313 309 308 318 323 323 323 322 322 321 323 320 320 322 322 321 318 323 326 327 325 323 323 322
300 301 303 306 309 309 309 308 307 308 314 314 311 312 312 311 310 308 313 316 316 318 319 318 318 321 322 319 321 319 320 321 320 320 320 319 320 318 321 321 322 322 322 321 321
300 301 302 302 306 308 308 308 308 309 313 314 311 312 311 310 310 308 315 315 316 320 321 320 320 318 318 321 316 319 320 318 319 318 318 319 319 316 320 320 320 320 321 321 321
299 299 300 301 303 306 307 308 308 310 313 314 312 312 309 311 311 310 310 314 317 317 318 320 318 318 318 320 315 316 318 319 317 317 318 318 318 317 317 317 317 319 319 320 320
298 298 301 301 302 304 307 308 308 310 312 313 311 311 311 310 309 309 309 314 316 317 316 318 318 314 313 317 319 317 317 316 316 316 316 315 316 315 315 315 316 316 317 318 319
298 300 300 301 303 303 307 307 307 310 311 311 312 311 311 310 309 309 309 313 314 315 316 313 312 314 314 316 320 320 320 316 317 317 315 316 318 316 314 316 318 318 319 319 320
298 300 300 301 302 304 305 307 306 307 310 309 312 311 311 309 309 309 308 313 314 314 314 314 313 314 315 315 317 318 318 315 317 318 317 316 316 315 314 314 314 317 318 319 320
298 299 301 300 302 303 306 307 305 307 310 310 311 311 311 308 308 308 308 312 313 312 313 314 313 314 316 316 316 315 316 317 316 316 318 317 318 316 315 315 314 315 317 318 318
297 298 300 301 301 303 304 305 306 308 309 310 310 311 311 308 308 307 308 312 312 312 312 311 312 313 314 314 316 314 315 316 315 316 318 315 317 316 316 314 314 316 318 318 317
297 298 300 300 301 302 304 306 308 309 306 308 309 310 311 308 309 308 308 311 312 312 313 312 312 311 315 315 314 317 318 320 321 319 319 313 318 317 312 311 312 313 317 315 316
298 298 299 299 300 303 306 305 307 307 307 305 310 310 311 310 310 309 308 310 310 307 308 310 311 312 311 315 316 317 317 317 314 317 316 313 319 317 313 315 315 316 315 316 316
297 298 299 299 300 301 303 307 306 305 306 308 310 311 311 311 310 309 309 309 309 307 307 310 310 310 311 312 314 316 319 313 313 305 311 313 314 313 312 312 314 314 315 314 313
298 298 298 299 299 298 299 305 303 304 305 308 310 311 310 311 311 309 309 308 308 308 306 307 309 308 311 313 312 314 313 317 317 317 315 314 315 314 313 313 310 309 311 312 309
298 298 297 298 298 298 300 299 299 301 302 307 308 310 310 310 309 309 308 306 307 308 307 305 306 308 308 312 314 315 314 313 312 314 312 311 313 309 311 311 309 308 311 309 308
297 298 298 297 299 299 299 298 301 302 303 302 307 308 309 310 310 310 308 307 307 308 309 306 305 308 310 307 310 312 313 313 314 313 312 312 311 309 309 309 308 310 308 308 307
296 297 298 298 297 299 295 299 300 302 302 305 306 308 306 310 310 309 306 306 307 307 309 308 306 303 309 310 309 312 312 312 311 308 312 315 312 307 306 305 308 308 307 307 306
297 297 297 299 297 296 294 295 299 301 302 301 302 306 308 309 306 309 307 306 307 308 309 309 305 309 308 308 310 312 312 312 313 314 312 313 312 309 307 305 305 306 307 306 304
297 297 296 297 298 295 295 296 300 301 300 300 305 307 307 309 307 306 306 306 307 307 309 309 309 303 305 306 309 310 311 311 314 314 313 312 311 309 307 306 307 308 306 302 301
297 297 297 296 298 295 297 299 300 300 302 302 303 307 308 308 308 306 305 307 307 306 308 307 309 305 303 305 305 303 310 310 312 313 312 310 309 308 308 307 300 298 299 297 296
297 297 298 299 298 297 298 299 301 301 302 301 302 306 308 307 306 307 307 307 306 307 308 309 306 308 310 305 305 303 305 307 309 307 311 312 312 306 302 297 294 293 293 292 292

GFSSW_850_thetae_162.txt.gz
Theta_e
308 309 311 314 316 316 316 315 313 312 311 309 306 304 302 302 304 306 308 310 312 313 314 317 323 324 321 322 329 328 326 328 329 328 329 326 324 324 326 327 326 326 326 327 328
309 308 307 311 314 315 315 315 315 313 312 311 310 308 304 303 302 302 303 304 307 312 313 313 316 323 322 322 329 325 324 327 325 325 327 327 325 324 325 327 327 327 327 327 327
309 309 308 307 310 313 313 314 316 316 313 312 311 310 308 306 304 302 302 303 303 305 312 316 315 320 324 322 328 325 324 323 326 327 327 327 326 325 323 323 326 327 327 327 328
307 308 308 308 309 310 311 310 313 314 316 313 311 310 310 308 300 309 308 302 303 302 308 315 319 323 323 321 325 327 326 326 327 328 327 326 327 327 324 325 326 326 327 327 327
305 307 309 309 309 310 310 309 308 311 314 315 312 311 310 310 306 312 314 310 303 302 308 316 320 323 322 321 322 326 325 327 327 327 326 326 327 326 327 327 326 327 328 328 328
302 304 306 308 309 310 310 310 309 307 311 315 313 311 311 309 309 305 311 313 311 303 314 317 317 321 323 321 320 320 323 325 325 327 326 325 325 326 326 327 328 328 328 328 328
301 302 305 306 307 309 310 310 310 307 308 314 314 311 311 311 309 305 304 308 314 306 307 312 318 322 323 323 323 322 322 320 320 322 321 323 322 322 324 324 324 326 327 326 326
300 301 301 303 305 307 310 310 310 308 307 311 315 312 312 311 312 311 305 304 309 310 307 311 318 322 322 322 321 321 321 322 318 320 321 322 321 317 321 323 324 323 323 324 323
299 300 301 301 303 305 308 310 310 309 308 309 314 312 313 312 312 312 310 310 312 313 314 314 317 320 322 318 319 318 316 319 318 318 319 319 320 318 319 319 322 323 323 322 321
298 298 300 300 301 304 307 309 309 309 308 310 313 313 311 311 312 312 311 312 316 315 319 319 317 316 316 320 313 316 319 317 317 316 316 318 318 316 320 319 319 319 320 320 319
298 299 299 300 300 301 304 308 309 309 310 310 313 312 311 312 312 311 309 315 318 317 315 316 315 315 315 317 313 311 316 316 315 316 319 317 317 317 317 316 317 318 318 317 315
298 299 299 299 300 301 302 306 309 309 308 310 312 312 311 311 310 310 310 312 315 315 314 316 316 311 312 315 316 315 315 315 315 315 316 315 314 313 313 314 315 316 315 317 318
297 298 298 298 299 301 303 304 308 308 309 309 309 312 311 310 310 310 310 311 314 315 315 311 311 312 313 315 318 318 317 314 315 315 314 315 315 312 312 314 315 316 318 318 319
297 298 298 298 300 301 302 303 305 307 308 309 311 311 311 309 309 309 309 312 313 314 313 312 309 312 313 314 316 317 316 314 315 316 314 314 310 310 311 313 313 315 317 318 318
297 298 297 298 301 302 301 302 304 308 310 308 310 311 311 310 309 308 308 312 311 311 312 312 311 310 313 313 315 314 315 316 314 314 316 314 315 312 314 315 313 313 316 317 317
297 297 298 299 301 301 302 302 304 308 309 309 310 312 311 309 309 308 308 311 312 311 311 310 312 311 311 312 313 312 313 315 314 317 317 314 314 311 310 312 313 314 316 316 316
298 297 297 299 301 300 303 305 305 308 306 308 310 311 311 310 309 308 308 311 312 314 314 312 311 311 313 313 313 314 314 311 315 317 314 309 313 312 310 310 310 310 314 315 316
297 297 297 298 300 300 300 305 306 306 305 307 310 311 312 309 310 309 308 311 311 308 310 312 312 311 310 314 314 315 314 309 309 312 313 311 316 313 312 313 313 313 314 314 314
297 298 298 298 298 300 302 304 304 304 306 309 309 311 311 310 310 309 309 310 312 308 306 310 310 307 309 312 313 314 316 312 312 306 309 311 311 312 311 311 312 313 313 313 309
298 298 299 299 299 298 298 303 305 304 305 308 310 309 311 310 310 310 309 309 311 310 305 306 308 308 309 312 312 312 312 315 315 314 315 312 313 314 312 310 309 308 310 310 307
298 298 297 298 298 296 299 299 300 300 303 307 307 310 310 310 310 309 309 307 309 309 306 304 305 307 310 312 312 313 314 312 311 314 314 310 312 309 311 311 308 307 310 307 307
297 296 297 298 297 298 299 299 300 301 300 303 306 307 308 309 311 311 309 307 308 308 308 304 304 308 310 306 309 311 312 313 313 312 313 311 310 307 307 308 307 309 307 307 307
297 296 297 298 298 298 297 298 299 301 302 303 304 306 305 308 310 309 308 306 307 306 308 306 307 306 309 309 309 311 311 311 310 306 311 312 312 306 306 305 308 307 306 305 303
296 293 297 299 296 294 295 296 298 300 301 302 301 302 306 308 307 309 307 305 306 307 308 308 306 308 308 308 308 311 311 311 312 312 312 311 309 308 305 303 304 305 304 303 301
297 296 296 297 298 287 294 296 299 299 298 300 301 301 303 308 309 309 307 306 306 307 308 308 309 306 306 306 307 308 310 311 311 312 311 310 310 310 304 303 303 304 300 299 299
297 296 297 293 297 293 291 294 298 298 299 299 300 302 302 302 305 308 307 307 307 306 308 308 308 305 302 305 306 306 308 309 311 311 311 309 308 306 306 304 299 298 298 297 295
296 297 297 296 289 296 294 295 297 298 300 300 301 301 302 302 301 306 307 307 306 307 308 308 309 309 309 305 306 306 307 308 309 310 311 312 310 303 298 296 294 294 294 292 291

GFSSW_850_thetae_165.txt.gz
Theta_e
310 309 308 308 311 316 317 317 315 314 312 311 310 307 304 302 302 302 304 307 309 312 313 314 315 322 323 319 326 327 327 327 329 327 328 324 323 324 326 326 326 326 325 327 328
308 310 309 308 309 313 316 316 316 315 314 312 311 310 309 305 303 302 302 302 303 306 310 312 313 316 323 321 328 325 325 327 325 324 326 326 324 324 324 326 326 327 327 327 327
306 307 309 310 308 309 314 315 315 316 316 314 312 311 310 309 305 303 302 302 302 302 305 312 313 316 322 322 325 323 324 322 325 326 326 327 326 324 323 323 326 327 327 327 327
304 305 307 309 309 307 309 314 313 314 315 316 313 312 311 310 302 307 310 306 302 302 303 309 314 319 322 320 324 325 324 325 326 327 326 326 327 326 324 325 326 325 326 326 326
303 304 306 307 309 309 308 310 313 310 311 313 315 312 311 311 309 309 312 313 307 301 302 309 318 320 321 321 322 325 323 325 326 326 326 326 326 326 326 328 325 325 326 327 328
302 301 302 304 307 308 309 310 311 311 308 309 314 313 311 310 311 309 306 310 312 303 302 314 316 318 320 320 319 319 324 324 325 326 326 324 324 324 325 326 327 328 327 327 328
300 301 303 302 304 307 308 310 311 310 309 308 311 314 312 312 312 305 306 306 311 308 303 312 316 319 321 322 322 321 320 319 320 322 322 322 321 321 322 323 324 324 326 328 327
298 299 300 301 301 304 306 308 310 310 310 307 309 315 312 313 313 312 310 304 306 310 308 313 318 320 322 321 320 321 321 321 317 319 322 322 319 317 319 322 322 322 320 321 322
299 299 298 300 301 302 304 306 309 310 310 308 310 314 314 312 312 312 312 310 306 313 311 316 318 319 321 317 318 317 311 318 317 317 318 319 319 317 318 319 320 319 320 321 321
298 298 298 299 300 301 302 305 307 310 310 309 310 313 312 312 313 312 312 310 314 316 313 316 315 315 315 317 312 314 318 315 314 315 316 318 320 317 317 319 319 319 319 319 319
298 297 297 298 298 301 301 304 307 309 310 309 309 312 311 312 312 312 312 311 316 316 314 316 313 313 314 316 310 309 314 314 313 314 317 316 317 317 317 317 317 318 318 318 318
298 297 298 297 298 300 301 303 307 308 309 309 309 310 311 312 311 311 311 310 312 314 312 314 314 310 310 312 314 313 313 313 314 314 315 314 315 314 313 314 316 317 317 317 316
297 296 297 297 299 300 300 302 306 308 308 308 308 309 311 311 311 311 310 311 313 313 313 311 310 311 311 313 316 316 315 313 312 313 312 313 311 313 311 313 313 314 314 314 313
298 298 297 297 298 299 300 301 302 304 307 309 309 308 311 311 310 311 309 312 313 313 313 312 309 310 312 313 314 315 314 312 314 313 311 310 307 307 307 309 311 313 314 315 316
297 298 298 298 298 299 299 300 301 303 308 307 308 309 309 309 309 310 309 312 312 311 312 311 309 310 311 312 313 312 314 314 313 314 315 313 314 310 312 312 312 312 315 315 316
297 298 297 297 298 298 299 299 302 305 308 309 309 310 309 309 309 308 308 310 312 310 311 309 310 307 308 309 313 310 312 313 313 315 315 311 313 309 310 312 312 314 315 315 315
298 297 297 297 297 298 300 301 304 305 305 307 310 310 309 310 310 309 309 309 312 312 313 310 310 310 310 311 311 312 311 309 314 316 313 309 312 311 308 309 309 311 314 313 315
297 297 297 297 298 299 300 302 304 301 306 306 309 309 309 309 310 309 309 309 311 309 308 311 311 310 309 310 312 314 313 309 308 309 311 308 313 311 309 310 311 311 312 312 314
297 297 298 297 297 298 299 302 303 298 303 308 308 309 310 309 309 309 309 310 311 308 310 311 311 307 309 311 311 313 315 309 311 307 309 309 309 311 310 310 312 313 311 312 309
297 298 298 298 298 298 297 301 302 303 305 304 308 309 309 310 310 310 309 309 310 309 305 307 309 307 309 312 311 311 311 314 313 310 309 311 311 312 311 310 308 309 310 310 306
297 298 297 298 298 297 298 299 299 299 301 307 304 307 309 310 309 310 310 307 308 309 307 303 305 307 309 312 313 313 313 312 311 311 310 309 308 307 310 309 309 307 310 306 304
297 295 297 298 297 297 298 299 300 301 300 301 303 306 307 308 310 309 308 308 308 309 310 304 304 308 310 306 308 312 312 312 313 313 312 311 310 306 306 307 308 307 305 304 303
296 296 298 298 298 298 297 299 298 299 299 302 304 306 306 308 310 309 307 306 307 308 310 307 308 309 310 309 308 309 310 311 310 306 312 314 312 306 306 305 307 304 303 302 302
296 293 296 298 297 294 297 296 299 299 300 300 301 301 306 308 308 310 309 305 306 308 310 308 307 309 309 308 307 311 310 310 311 313 312 311 310 306 305 305 303 302 301 300 300
295 291 295 289 297 285 294 295 299 300 299 301 301 301 305 306 308 308 307 306 306 308 309 308 310 309 307 304 306 308 310 309 311 311 311 310 308 309 304 303 302 302 299 299 298
296 295 294 291 294 295 294 295 299 299 298 300 300 301 301 302 304 308 305 306 307 306 308 308 310 308 308 305 305 307 307 309 310 310 310 309 307 307 304 304 301 299 298 297 296
296 296 297 294 285 292 295 294 296 297 298 299 299 301 301 301 301 302 302 302 304 306 306 308 309 309 309 306 306 308 308 307 309 309 310 311 310 303 300 303 299 298 297 295 293

GFSSW_850_thetae_168.txt.gz
Theta_e
309 310 310 309 307 310 315 317 316 315 314 313 311 309 306 304 302 302 302 304 307 310 312 316 316 316 320 321 323 327 332 334 333 332 331 325 329 324 326 328 326 328 326 327 328
306 308 309 309 308 309 311 316 317 317 315 313 312 311 310 308 305 303 302 302 302 304 307 310 312 314 321 323 327 325 328 331 330 330 331 327 327 326 328 328 328 328 326 327 328
306 306 307 308 310 308 309 313 316 316 316 315 313 312 311 310 308 304 303 302 302 302 303 306 311 316 319 323 324 325 322 327 329 328 328 329 327 325 326 329 329 329 329 327 327
303 305 305 306 307 310 308 309 314 315 315 316 315 313 312 311 308 303 306 308 304 302 302 305 316 318 319 320 324 324 324 325 327 327 327 329 328 329 326 328 326 326 326 327 327
302 303 304 304 306 307 309 308 310 314 314 314 315 315 313 312 311 309 311 311 308 303 301 312 315 316 317 320 324 325 323 325 326 326 326 326 328 329 328 328 325 326 326 326 327
301 301 302 303 305 306 308 309 309 312 313 311 312 315 313 312 312 311 307 310 311 302 302 313 314 317 316 319 320 321 323 324 325 326 326 326 324 326 327 327 327 326 326 327 327
300 299 300 301 301 303 306 308 308 310 311 311 309 313 312 313 313 309 309 306 307 308 310 315 317 316 318 320 321 320 321 323 323 324 324 323 323 324 321 323 325 327 328 328 328
300 299 299 300 301 301 303 306 308 310 311 310 309 312 313 313 314 312 306 306 306 311 305 312 319 320 320 320 321 320 320 318 318 321 322 322 320 319 319 321 321 320 321 322 323
300 299 299 299 300 301 301 305 307 308 311 311 309 311 314 313 313 314 313 312 306 312 311 316 318 317 320 318 317 320 314 318 315 319 319 322 318 318 318 320 320 320 321 321 322
300 299 298 299 298 299 301 302 304 307 310 311 310 310 311 312 313 313 313 311 310 313 315 316 315 316 317 317 311 316 315 315 316 316 320 319 320 318 318 319 320 319 320 320 320
298 299 298 297 297 299 300 302 303 305 309 311 310 310 311 312 313 312 312 311 312 315 314 314 314 314 314 316 310 310 315 313 314 315 319 318 318 317 317 319 319 318 318 319 318
298 297 298 298 298 298 299 302 304 308 309 310 309 309 310 312 311 311 311 311 313 315 312 315 314 310 311 314 315 311 312 313 315 316 317 315 316 316 316 316 316 316 316 316 316
298 298 297 297 299 298 299 301 303 306 308 309 309 309 310 311 311 310 310 312 312 313 314 312 311 311 312 313 315 315 313 311 310 316 316 317 314 314 315 315 315 315 315 315 315
297 297 297 297 298 298 299 299 301 304 305 308 309 310 310 310 310 311 311 311 313 314 313 313 311 312 312 310 312 311 313 314 313 313 310 313 309 311 310 312 314 314 314 314 314
298 298 298 298 298 297 298 298 300 302 307 309 309 310 310 311 309 309 311 311 313 313 313 313 313 312 313 312 312 311 313 315 314 314 313 312 313 310 313 311 313 315 316 316 316
297 299 298 299 298 298 297 299 300 303 307 309 308 309 311 310 310 309 308 310 312 313 312 312 311 312 312 312 313 313 315 316 316 316 316 311 312 311 311 311 312 315 315 315 315
296 297 297 298 298 298 298 299 303 305 306 308 309 309 310 311 310 309 310 309 313 314 315 313 312 311 310 312 313 314 315 315 316 316 315 310 312 311 311 311 311 313 314 313 314
297 297 297 297 298 297 298 300 302 304 306 306 309 309 309 310 310 310 311 311 311 312 313 314 314 313 311 311 313 314 313 312 311 313 312 312 312 312 312 311 311 312 312 313 312
297 297 298 297 296 297 298 301 302 302 304 306 309 310 309 309 309 310 311 311 311 311 312 313 312 311 312 311 312 313 314 310 308 309 313 311 312 311 312 312 311 314 312 312 309
297 297 298 298 297 298 299 300 302 303 304 305 308 308 311 310 310 310 310 310 310 310 311 311 312 310 311 312 311 313 312 313 313 311 311 309 310 311 313 313 313 313 313 311 306
297 297 297 298 298 298 300 300 300 299 302 304 305 307 309 310 310 310 310 309 309 310 311 310 311 310 311 313 314 312 314 313 312 312 311 309 309 309 310 312 314 314 313 309 305
296 298 297 298 298 298 299 300 299 300 299 301 303 305 306 308 310 310 309 309 309 309 311 311 310 312 311 311 312 313 313 314 314 313 312 311 311 310 311 311 312 312 311 306 303
295 296 297 298 300 299 299 300 300 301 302 302 303 304 304 306 306 309 309 308 308 310 311 311 309 313 311 310 309 313 314 313 313 312 315 315 312 311 310 310 309 309 306 303 300
296 296 295 297 297 299 299 300 299 299 300 300 302 301 302 303 305 307 308 309 308 310 310 310 311 311 312 311 311 312 313 313 314 315 313 314 312 312 310 311 307 306 303 301 299
295 295 296 298 298 296 297 298 299 300 299 300 301 302 303 302 303 307 308 307 307 308 309 310 311 311 311 310 309 311 312 313 314 314 314 314 313 313 312 310 307 305 302 299 298
295 294 292 291 293 297 298 298 298 299 300 300 301 301 301 302 303 306 308 309 309 308 310 310 313 311 310 310 310 310 311 311 312 313 314 313 312 312 311 309 307 303 301 299 298
295 296 295 295 295 297 297 297 298 299 299 299 300 300 301 302 301 300 305 306 306 307 309 309 310 311 312 310 310 309 309 311 311 311 312 313 312 311 309 307 305 303 301 299 295